| time (UTC) | temp F | wind direction | speed MPH | gust MPH | rain 1hr in | rain 24hr in | rain mn in | humidity % | barometer mb |
| 20260505113930 | 69 | 32 | 4.0 | 5.0 | 0.01 | 0.03 | 0.03 | 85 | 1017.5 |
| 20260505113430 | 69 | 28 | 4.0 | 8.0 | 0.01 | 0.03 | 0.03 | 85 | 1017.6 |
| 20260505112930 | 69 | 32 | 4.0 | 8.0 | 0.01 | 0.03 | 0.03 | 85 | 1017.6 |
| 20260505112430 | 69 | 29 | 3.0 | 6.0 | 0.02 | 0.03 | 0.03 | 86 | 1017.9 |
| 20260505111930 | 69 | 30 | 3.0 | 6.0 | 0.02 | 0.03 | 0.03 | 86 | 1018.0 |
| 20260505111430 | 69 | 27 | 3.0 | 5.0 | 0.02 | 0.03 | 0.03 | 87 | 1017.8 |
| 20260505110930 | 68 | 28 | 1.0 | 5.0 | 0.02 | 0.03 | 0.03 | 88 | 1017.7 |
| 20260505110430 | 68 | 26 | 0.0 | 0.0 | 0.02 | 0.03 | 0.03 | 88 | 1017.8 |
| 20260505101930 | 71 | 24 | 3.0 | 7.0 | 0.00 | 0.01 | 0.01 | 80 | 1017.3 |
| 20260505101430 | 71 | 20 | 3.0 | 7.0 | 0.00 | 0.01 | 0.01 | 80 | 1017.1 |
| 20260505100930 | 71 | 22 | 3.0 | 7.0 | 0.00 | 0.01 | 0.01 | 80 | 1017.1 |
| 20260505100430 | 71 | 21 | 2.0 | 4.0 | 0.00 | 0.01 | 0.01 | 79 | 1017.0 |
| 20260505095930 | 71 | 21 | 2.0 | 5.0 | 0.00 | 0.01 | 0.01 | 79 | 1017.1 |
| 20260505095430 | 71 | 16 | 2.0 | 6.0 | 0.00 | 0.01 | 0.01 | 79 | 1017.1 |
| 20260505094930 | 71 | 22 | 2.0 | 5.0 | 0.00 | 0.01 | 0.01 | 79 | 1017.1 |
| 20260505094430 | 71 | 19 | 2.0 | 5.0 | 0.00 | 0.01 | 0.01 | 79 | 1016.9 |
| 20260505093930 | 71 | 22 | 2.0 | 5.0 | 0.00 | 0.01 | 0.01 | 79 | 1016.8 |
| 20260505093430 | 71 | 24 | 2.0 | 5.0 | 0.00 | 0.01 | 0.01 | 79 | 1017.0 |
| 20260505092930 | 71 | 18 | 2.0 | 5.0 | 0.00 | 0.01 | 0.01 | 79 | 1016.9 |
| 20260505092430 | 72 | 21 | 2.0 | 5.0 | 0.00 | 0.01 | 0.01 | 79 | 1017.0 |
| 20260505091930 | 72 | 19 | 1.0 | 5.0 | 0.00 | 0.01 | 0.01 | 79 | 1017.0 |
| 20260505091430 | 72 | 23 | 1.0 | 2.0 | 0.00 | 0.01 | 0.01 | 79 | 1016.9 |
| 20260505090930 | 72 | 17 | 1.0 | 4.0 | 0.00 | 0.01 | 0.01 | 78 | 1016.9 |
| 20260505090430 | 72 | 22 | 1.0 | 3.0 | 0.00 | 0.01 | 0.01 | 78 | 1016.8 |
| 20260505085930 | 72 | 19 | 1.0 | 3.0 | 0.00 | 0.01 | 0.01 | 78 | 1016.7 |
| 20260505085430 | 72 | 22 | 0.0 | 2.0 | 0.00 | 0.01 | 0.01 | 77 | 1016.7 |
| 20260505084930 | 72 | 22 | 0.0 | 0.0 | 0.00 | 0.01 | 0.01 | 76 | 1016.8 |
| 20260505084430 | 73 | 18 | 0.0 | 0.0 | 0.00 | 0.01 | 0.01 | 76 | 1016.7 |
| 20260505083930 | 73 | 17 | 0.0 | 2.0 | 0.00 | 0.01 | 0.01 | 76 | 1016.6 |
| 20260505083430 | 73 | 19 | 0.0 | 1.0 | 0.00 | 0.01 | 0.01 | 75 | 1016.5 |
| 20260505082930 | 73 | 13 | 0.0 | 1.0 | 0.00 | 0.01 | 0.01 | 75 | 1016.5 |
| 20260505082430 | 73 | 15 | 0.0 | 2.0 | 0.00 | 0.01 | 0.01 | 75 | 1016.4 |
| 20260505081930 | 74 | 13 | 0.0 | 2.0 | 0.00 | 0.01 | 0.01 | 74 | 1016.1 |
| 20260505081430 | 74 | 13 | 0.0 | 2.0 | 0.00 | 0.01 | 0.01 | 74 | 1016.1 |
| 20260505080930 | 74 | 16 | 0.0 | 2.0 | 0.00 | 0.01 | 0.01 | 73 | 1016.1 |
| 20260505080430 | 74 | 20 | 0.0 | 0.0 | 0.00 | 0.01 | 0.01 | 72 | 1016.1 |
| 20260505075930 | 74 | 14 | 1.0 | 3.0 | 0.00 | 0.01 | 0.01 | 72 | 1015.9 |
| 20260505075430 | 75 | 14 | 1.0 | 3.0 | 0.00 | 0.01 | 0.01 | 72 | 1015.8 |
| 20260505074930 | 75 | 19 | 1.0 | 3.0 | 0.00 | 0.01 | 0.01 | 71 | 1015.9 |
| 20260505074430 | 75 | 15 | 0.0 | 2.0 | 0.00 | 0.01 | 0.01 | 71 | 1015.9 |
| 20260505073930 | 75 | 17 | 0.0 | 2.0 | 0.00 | 0.01 | 0.01 | 70 | 1015.8 |
| 20260505073430 | 75 | 13 | 0.0 | 0.0 | 0.00 | 0.01 | 0.01 | 68 | 1015.9 |
| 20260505072930 | 75 | 9 | 0.0 | 0.0 | 0.00 | 0.01 | 0.01 | 67 | 1016.0 |
| 20260505072430 | 76 | 5 | 0.0 | 2.0 | 0.00 | 0.01 | 0.01 | 66 | 1015.8 |
| 20260505071930 | 76 | 63 | 0.0 | 0.0 | 0.00 | 0.01 | 0.01 | 65 | 1015.7 |
| 20260505071430 | 76 | 63 | 0.0 | 0.0 | 0.00 | 0.01 | 0.01 | 65 | 1015.6 |
| 20260505070930 | 76 | 63 | 0.0 | 0.0 | 0.00 | 0.01 | 0.01 | 64 | 1015.5 |
| 20260505070430 | 77 | 63 | 0.0 | 0.0 | 0.00 | 0.01 | 0.01 | 64 | 1015.4 |
| 20260505065930 | 77 | 63 | 0.0 | 0.0 | 0.00 | 0.01 | 0.01 | 64 | 1015.4 |
| 20260505065430 | 77 | 63 | 0.0 | 0.0 | 0.00 | 0.01 | 0.01 | 63 | 1015.4 |
| 20260505064930 | 77 | 64 | 0.0 | 0.0 | 0.00 | 0.01 | 0.01 | 63 | 1015.4 |
| 20260505064430 | 78 | 67 | 0.0 | 0.0 | 0.00 | 0.01 | 0.01 | 62 | 1015.4 |
| 20260505063930 | 78 | 64 | 0.0 | 0.0 | 0.00 | 0.01 | 0.01 | 62 | 1015.3 |
| 20260505063430 | 78 | 66 | 0.0 | 0.0 | 0.00 | 0.01 | 0.01 | 61 | 1015.4 |
| 20260505062930 | 78 | 63 | 0.0 | 1.0 | 0.00 | 0.01 | 0.01 | 61 | 1015.3 |
| 20260505062430 | 79 | 65 | 0.0 | 2.0 | 0.00 | 0.01 | 0.01 | 60 | 1015.2 |
| 20260505061930 | 79 | 21 | 0.0 | 2.0 | 0.00 | 0.01 | 0.01 | 59 | 1015.2 |
| 20260505061430 | 79 | 13 | 0.0 | 0.0 | 0.00 | 0.01 | 0.01 | 58 | 1015.2 |
| 20260505060930 | 79 | 0 | 0.0 | 0.0 | 0.00 | 0.01 | 0.01 | 58 | 1015.2 |
| 20260505060430 | 79 | 18 | 0.0 | 2.0 | 0.00 | 0.01 | 0.01 | 58 | 1015.1 |
| 20260505055930 | 79 | 69 | 0.0 | 1.0 | 0.00 | 0.01 | 0.01 | 58 | 1015.0 |
| 20260505055430 | 79 | 67 | 0.0 | 2.0 | 0.00 | 0.01 | 0.01 | 58 | 1015.0 |
| 20260505054931 | 79 | 60 | 0.0 | 3.0 | 0.00 | 0.01 | 0.01 | 57 | 1015.2 |
| 20260505054431 | 79 | 66 | 0.0 | 0.0 | 0.00 | 0.01 | 0.01 | 57 | 1015.2 |
| 20260505053931 | 79 | 26 | 0.0 | 0.0 | 0.00 | 0.01 | 0.01 | 59 | 1015.2 |
| 20260505053431 | 79 | 53 | 0.0 | 2.0 | 0.00 | 0.01 | 0.01 | 58 | 1015.1 |
| 20260505052931 | 79 | 69 | 1.0 | 2.0 | 0.00 | 0.01 | 0.01 | 59 | 1015.2 |
| 20260505052431 | 79 | 61 | 1.0 | 3.0 | 0.00 | 0.01 | 0.01 | 59 | 1015.3 |
| 20260505051931 | 79 | 65 | 0.0 | 3.0 | 0.00 | 0.01 | 0.01 | 59 | 1015.0 |
| 20260505051431 | 79 | 56 | 1.0 | 4.0 | 0.00 | 0.01 | 0.01 | 59 | 1014.9 |
| 20260505050931 | 79 | 59 | 2.0 | 4.0 | 0.00 | 0.01 | 0.01 | 60 | 1015.0 |
| 20260505050431 | 79 | 63 | 2.0 | 4.0 | 0.00 | 0.01 | 0.01 | 60 | 1015.0 |
| 20260505041431 | 79 | 63 | 1.0 | 4.0 | 0.00 | 0.01 | 0.01 | 60 | 1014.9 |
| 20260505040931 | 79 | 56 | 2.0 | 3.0 | 0.00 | 0.01 | 0.01 | 60 | 1014.8 |
| 20260505040431 | 79 | 56 | 2.0 | 6.0 | 0.00 | 0.01 | 0.01 | 59 | 1014.8 |
| 20260505035931 | 80 | 57 | 2.0 | 5.0 | 0.00 | 0.01 | 0.01 | 60 | 1014.9 |
| 20260505035431 | 80 | 59 | 2.0 | 8.0 | 0.00 | 0.01 | 0.01 | 57 | 1014.8 |
| 20260505034931 | 80 | 63 | 1.0 | 4.0 | 0.00 | 0.01 | 0.01 | 59 | 1014.5 |
| 20260505034431 | 80 | 46 | 2.0 | 3.0 | 0.00 | 0.01 | 0.01 | 59 | 1014.7 |
| 20260505033931 | 80 | 68 | 3.0 | 6.0 | 0.00 | 0.01 | 0.01 | 57 | 1014.8 |
| 20260505033431 | 80 | 67 | 3.0 | 8.0 | 0.00 | 0.01 | 0.01 | 57 | 1014.8 |
| 20260505032931 | 81 | 61 | 2.0 | 6.0 | 0.00 | 0.01 | 0.01 | 57 | 1014.7 |
| 20260505032431 | 81 | 15 | 2.0 | 5.0 | 0.00 | 0.01 | 0.01 | 57 | 1014.9 |
| 20260505031931 | 81 | 24 | 1.0 | 5.0 | 0.00 | 0.01 | 0.01 | 58 | 1014.8 |
| 20260505031431 | 81 | 69 | 1.0 | 5.0 | 0.00 | 0.01 | 0.01 | 57 | 1014.7 |
| 20260505030931 | 80 | 19 | 2.0 | 4.0 | 0.00 | 0.01 | 0.01 | 55 | 1014.7 |
| 20260505030431 | 80 | 36 | 2.0 | 6.0 | 0.00 | 0.01 | 0.01 | 56 | 1015.0 |
| 20260505025931 | 80 | 35 | 2.0 | 5.0 | 0.00 | 0.01 | 0.01 | 58 | 1015.1 |
| 20260505025431 | 80 | 59 | 1.0 | 5.0 | 0.00 | 0.01 | 0.01 | 57 | 1015.3 |
| 20260505024931 | 79 | 67 | 1.0 | 4.0 | 0.00 | 0.01 | 0.01 | 57 | 1015.3 |
| 20260505024431 | 79 | 40 | 1.0 | 3.0 | 0.00 | 0.01 | 0.01 | 58 | 1015.3 |
| 20260505023931 | 79 | 29 | 1.0 | 3.0 | 0.00 | 0.01 | 0.01 | 59 | 1015.5 |
| 20260505023431 | 79 | 36 | 1.0 | 3.0 | 0.00 | 0.01 | 0.01 | 58 | 1015.7 |
| 20260505022931 | 78 | 40 | 2.0 | 3.0 | 0.00 | 0.01 | 0.01 | 62 | 1015.7 |
| 20260505022431 | 78 | 39 | 2.0 | 5.0 | 0.00 | 0.01 | 0.01 | 62 | 1015.9 |
| 20260505021931 | 78 | 35 | 2.0 | 3.0 | 0.00 | 0.01 | 0.01 | 63 | 1016.0 |
| 20260505021431 | 78 | 46 | 2.0 | 5.0 | 0.00 | 0.01 | 0.01 | 63 | 1016.0 |
| 20260505020931 | 78 | 63 | 1.0 | 4.0 | 0.00 | 0.01 | 0.01 | 64 | 1016.0 |
| 20260505020431 | 77 | 68 | 1.0 | 3.0 | 0.00 | 0.01 | 0.01 | 64 | 1016.2 |
| 20260505015931 | 77 | 69 | 1.0 | 5.0 | 0.00 | 0.01 | 0.01 | 65 | 1016.3 |
| 20260505015431 | 77 | 55 | 0.0 | 4.0 | 0.00 | 0.01 | 0.01 | 67 | 1016.4 |
| 20260505014931 | 76 | 13 | 0.0 | 0.0 | 0.00 | 0.01 | 0.01 | 68 | 1016.4 |
| 20260505014431 | 76 | 48 | 0.0 | 0.0 | 0.00 | 0.01 | 0.01 | 66 | 1016.5 |
| 20260505013931 | 76 | 60 | 1.0 | 3.0 | 0.00 | 0.01 | 0.01 | 66 | 1016.7 |
| 20260505013431 | 76 | 58 | 1.0 | 3.0 | 0.00 | 0.01 | 0.01 | 68 | 1016.7 |
| 20260505012931 | 76 | 36 | 0.0 | 3.0 | 0.00 | 0.01 | 0.01 | 69 | 1016.8 |
| 20260505012431 | 76 | 62 | 0.0 | 2.0 | 0.00 | 0.01 | 0.01 | 69 | 1016.9 |
| 20260505011931 | 75 | 42 | 0.0 | 0.0 | 0.00 | 0.01 | 0.01 | 71 | 1017.0 |
| 20260505011431 | 75 | 69 | 0.0 | 0.0 | 0.00 | 0.01 | 0.01 | 72 | 1017.0 |
| 20260505010931 | 74 | 56 | 0.0 | 4.0 | 0.00 | 0.01 | 0.01 | 72 | 1017.0 |
| 20260505010431 | 74 | 63 | 1.0 | 1.0 | 0.00 | 0.01 | 0.01 | 72 | 1017.1 |
| 20260505005931 | 74 | 58 | 1.0 | 4.0 | 0.00 | 0.01 | 0.01 | 72 | 1017.1 |
| 20260505005431 | 74 | 67 | 1.0 | 4.0 | 0.00 | 0.01 | 0.01 | 74 | 1017.3 |
| 20260505004931 | 74 | 67 | 1.0 | 4.0 | 0.00 | 0.01 | 0.01 | 76 | 1017.5 |
| 20260505004431 | 73 | 60 | 0.0 | 3.0 | 0.00 | 0.01 | 0.01 | 76 | 1017.5 |
| 20260505003931 | 73 | 61 | 0.0 | 0.0 | 0.00 | 0.01 | 0.01 | 78 | 1017.6 |
| 20260505003431 | 72 | 74 | 0.0 | 3.0 | 0.00 | 0.01 | 0.01 | 78 | 1017.9 |
| 20260505002931 | 72 | 65 | 0.0 | 3.0 | 0.00 | 0.01 | 0.01 | 79 | 1018.0 |
| 20260505002431 | 72 | 52 | 0.0 | 3.0 | 0.00 | 0.01 | 0.01 | 78 | 1018.0 |
| 20260505001931 | 72 | 71 | 0.0 | 0.0 | 0.00 | 0.01 | 0.01 | 79 | 1018.0 |
| 20260505001431 | 71 | 50 | 0.0 | 0.0 | 0.00 | 0.01 | 0.01 | 81 | 1018.1 |
| 20260505000931 | 71 | 57 | 0.0 | 0.0 | 0.00 | 0.01 | 0.01 | 82 | 1017.9 |
| 20260505000431 | 70 | 49 | 0.0 | 0.0 | 0.00 | 0.01 | 0.01 | 83 | 1017.9 |
| 20260504235931 | 70 | 57 | 0.0 | 0.0 | 0.00 | 0.01 | 0.01 | 84 | 1018.0 |
| 20260504235431 | 69 | 55 | 0.0 | 0.0 | 0.00 | 0.01 | 0.01 | 86 | 1018.0 |
| 20260504234931 | 69 | 74 | 0.0 | 0.0 | 0.00 | 0.01 | 0.01 | 86 | 1018.1 |
| 20260504234431 | 69 | 53 | 0.0 | 0.0 | 0.00 | 0.01 | 0.01 | 87 | 1018.1 |
| 20260504233931 | 69 | 52 | 0.0 | 0.0 | 0.00 | 0.01 | 0.01 | 88 | 1018.2 |
| 20260504233431 | 68 | 70 | 0.0 | 0.0 | 0.00 | 0.01 | 0.01 | 89 | 1018.3 |
| 20260504232931 | 68 | 67 | 0.0 | 0.0 | 0.00 | 0.01 | 0.01 | 89 | 1018.3 |
| 20260504232431 | 68 | 71 | 0.0 | 1.0 | 0.00 | 0.01 | 0.01 | 89 | 1018.3 |
| 20260504231931 | 68 | 69 | 0.0 | 0.0 | 0.00 | 0.01 | 0.01 | 91 | 1018.4 |
| 20260504231431 | 67 | 66 | 0.0 | 0.0 | 0.00 | 0.01 | 0.01 | 93 | 1018.4 |
| 20260504230931 | 67 | 60 | 0.0 | 0.0 | 0.00 | 0.01 | 0.01 | 93 | 1018.3 |
| 20260504230431 | 67 | 71 | 0.0 | 0.0 | 0.00 | 0.01 | 0.01 | 95 | 1018.3 |
| 20260504225931 | 67 | 73 | 0.0 | 0.0 | 0.00 | 0.01 | 0.01 | 95 | 1018.3 |
| 20260504225431 | 66 | 65 | 0.0 | 0.0 | 0.00 | 0.01 | 0.01 | 95 | 1018.3 |
| 20260504224931 | 66 | 71 | 0.0 | 0.0 | 0.00 | 0.01 | 0.01 | 96 | 1018.4 |
| 20260504224431 | 66 | 68 | 0.0 | 0.0 | 0.00 | 0.01 | 0.01 | 95 | 1018.5 |
| 20260504223931 | 66 | 57 | 0.0 | 0.0 | 0.00 | 0.01 | 0.01 | 95 | 1018.4 |
| 20260504223431 | 66 | 74 | 0.0 | 0.0 | 0.00 | 0.01 | 0.01 | 96 | 1018.5 |
| 20260504222931 | 66 | 57 | 0.0 | 1.0 | 0.00 | 0.01 | 0.01 | 96 | 1018.4 |
| 20260504222431 | 66 | 67 | 0.0 | 0.0 | 0.00 | 0.01 | 0.01 | 96 | 1018.5 |
| 20260504221931 | 65 | 64 | 0.0 | 0.0 | 0.00 | 0.01 | 0.01 | 96 | 1018.3 |
| 20260504221431 | 65 | 74 | 0.0 | 0.0 | 0.00 | 0.01 | 0.01 | 96 | 1018.3 |
| 20260504220931 | 65 | 77 | 0.0 | 0.0 | 0.00 | 0.01 | 0.01 | 96 | 1018.3 |
| 20260504220431 | 65 | 77 | 0.0 | 0.0 | 0.00 | 0.01 | 0.01 | 96 | 1018.2 |
| 20260504215931 | 64 | 76 | 0.0 | 0.0 | 0.00 | 0.01 | 0.01 | 96 | 1018.3 |
| 20260504215431 | 64 | 72 | 0.0 | 0.0 | 0.00 | 0.01 | 0.01 | 95 | 1018.3 |
| 20260504214931 | 64 | 72 | 0.0 | 0.0 | 0.00 | 0.01 | 0.01 | 95 | 1018.3 |
| 20260504214431 | 64 | 77 | 0.0 | 0.0 | 0.00 | 0.01 | 0.01 | 95 | 1018.2 |
| 20260504213931 | 64 | 82 | 0.0 | 0.0 | 0.00 | 0.01 | 0.01 | 95 | 1018.2 |
| 20260504213431 | 64 | 88 | 0.0 | 0.0 | 0.00 | 0.01 | 0.01 | 95 | 1018.1 |
| 20260504212931 | 64 | 103 | 0.0 | 0.0 | 0.00 | 0.01 | 0.01 | 95 | 1018.0 |
| 20260504212431 | 64 | 105 | 0.0 | 0.0 | 0.00 | 0.01 | 0.01 | 95 | 1017.9 |
| 20260504211931 | 63 | 103 | 0.0 | 0.0 | 0.00 | 0.01 | 0.01 | 95 | 1017.8 |
| 20260504211431 | 63 | 86 | 0.0 | 0.0 | 0.00 | 0.01 | 0.01 | 95 | 1017.8 |
| 20260504210931 | 63 | 85 | 0.0 | 0.0 | 0.00 | 0.01 | 0.01 | 95 | 1017.8 |
| 20260504210431 | 63 | 85 | 0.0 | 0.0 | 0.00 | 0.01 | 0.01 | 95 | 1017.7 |
| 20260504205931 | 63 | 67 | 0.0 | 0.0 | 0.00 | 0.01 | 0.01 | 95 | 1017.7 |
| 20260504205431 | 63 | 84 | 0.0 | 0.0 | 0.00 | 0.01 | 0.01 | 95 | 1017.8 |
| 20260504204931 | 63 | 91 | 0.0 | 0.0 | 0.00 | 0.01 | 0.01 | 95 | 1017.6 |
| 20260504204431 | 63 | 92 | 0.0 | 0.0 | 0.00 | 0.01 | 0.01 | 95 | 1017.6 |
| 20260504203931 | 63 | 94 | 0.0 | 0.0 | 0.00 | 0.01 | 0.01 | 95 | 1017.6 |
| 20260504203431 | 63 | 98 | 0.0 | 0.0 | 0.00 | 0.01 | 0.01 | 95 | 1017.5 |
| 20260504202931 | 62 | 92 | 0.0 | 0.0 | 0.00 | 0.01 | 0.01 | 95 | 1017.4 |
| 20260504202431 | 62 | 92 | 0.0 | 0.0 | 0.00 | 0.01 | 0.01 | 95 | 1017.5 |
| 20260504201931 | 62 | 94 | 0.0 | 0.0 | 0.00 | 0.01 | 0.01 | 95 | 1017.6 |
| 20260504201431 | 62 | 96 | 0.0 | 0.0 | 0.00 | 0.01 | 0.01 | 95 | 1017.5 |
| 20260504200931 | 62 | 92 | 0.0 | 0.0 | 0.00 | 0.01 | 0.01 | 95 | 1017.5 |
| 20260504200431 | 62 | 96 | 0.0 | 0.0 | 0.00 | 0.01 | 0.01 | 95 | 1017.5 |
| 20260504195931 | 62 | 95 | 0.0 | 0.0 | 0.00 | 0.01 | 0.01 | 95 | 1017.4 |
| 20260504195431 | 62 | 94 | 0.0 | 0.0 | 0.00 | 0.01 | 0.01 | 95 | 1017.3 |
| 20260504194931 | 62 | 94 | 0.0 | 0.0 | 0.00 | 0.01 | 0.01 | 95 | 1017.3 |
| 20260504194431 | 62 | 95 | 0.0 | 0.0 | 0.00 | 0.01 | 0.01 | 95 | 1017.3 |
| 20260504193931 | 62 | 96 | 0.0 | 0.0 | 0.00 | 0.01 | 0.01 | 95 | 1017.2 |
| 20260504193431 | 62 | 94 | 0.0 | 0.0 | 0.00 | 0.01 | 0.01 | 95 | 1017.0 |
| 20260504192931 | 62 | 94 | 0.0 | 0.0 | 0.00 | 0.01 | 0.01 | 95 | 1017.0 |
| 20260504192431 | 62 | 94 | 0.0 | 0.0 | 0.00 | 0.01 | 0.01 | 95 | 1016.8 |
| 20260504191932 | 62 | 98 | 0.0 | 0.0 | 0.00 | 0.01 | 0.01 | 95 | 1016.8 |
| 20260504191431 | 62 | 98 | 0.0 | 0.0 | 0.01 | 0.01 | 0.01 | 95 | 1016.7 |
| 20260504190931 | 62 | 102 | 0.0 | 0.0 | 0.01 | 0.01 | 0.01 | 95 | 1016.8 |
| 20260504190431 | 62 | 105 | 0.0 | 0.0 | 0.01 | 0.01 | 0.01 | 95 | 1016.8 |
| 20260504185931 | 62 | 96 | 0.0 | 0.0 | 0.01 | 0.01 | 0.01 | 95 | 1016.8 |
| 20260504185431 | 62 | 94 | 0.0 | 0.0 | 0.01 | 0.01 | 0.01 | 95 | 1016.7 |
| 20260504184932 | 62 | 102 | 0.0 | 0.0 | 0.01 | 0.01 | 0.01 | 94 | 1016.6 |
| 20260504184431 | 62 | 92 | 0.0 | 0.0 | 0.01 | 0.01 | 0.01 | 94 | 1016.6 |
| 20260504183931 | 62 | 98 | 0.0 | 0.0 | 0.01 | 0.01 | 0.01 | 94 | 1016.6 |
| 20260504183431 | 63 | 96 | 0.0 | 0.0 | 0.01 | 0.01 | 0.01 | 95 | 1016.6 |
| 20260504182931 | 63 | 88 | 0.0 | 0.0 | 0.01 | 0.01 | 0.01 | 95 | 1016.6 |
| 20260504182431 | 62 | 92 | 0.0 | 0.0 | 0.01 | 0.01 | 0.01 | 95 | 1016.6 |
| 20260504181931 | 62 | 88 | 0.0 | 0.0 | 0.01 | 0.01 | 0.01 | 95 | 1016.6 |
| 20260504181431 | 62 | 98 | 0.0 | 0.0 | 0.00 | 0.00 | 0.00 | 94 | 1016.6 |
| 20260504180932 | 62 | 84 | 0.0 | 0.0 | 0.00 | 0.00 | 0.00 | 94 | 1016.6 |
| 20260504180432 | 62 | 83 | 0.0 | 0.0 | 0.00 | 0.00 | 0.00 | 94 | 1016.6 |
| 20260504175931 | 62 | 83 | 0.0 | 0.0 | 0.00 | 0.00 | 0.00 | 94 | 1016.7 |
| 20260504175431 | 62 | 82 | 0.0 | 0.0 | 0.00 | 0.00 | 0.00 | 94 | 1016.6 |
| 20260504174931 | 62 | 81 | 0.0 | 0.0 | 0.00 | 0.00 | 0.00 | 94 | 1016.6 |
| 20260504174432 | 62 | 81 | 0.0 | 0.0 | 0.00 | 0.00 | 0.00 | 94 | 1016.5 |
| 20260504173932 | 62 | 83 | 0.0 | 0.0 | 0.00 | 0.00 | 0.00 | 94 | 1016.5 |
| 20260504173432 | 62 | 81 | 0.0 | 0.0 | 0.00 | 0.00 | 0.00 | 94 | 1016.5 |
| 20260504172932 | 62 | 68 | 0.0 | 0.0 | 0.00 | 0.00 | 0.00 | 93 | 1016.6 |
| 20260504172432 | 62 | 62 | 0.0 | 0.0 | 0.00 | 0.00 | 0.00 | 93 | 1016.7 |
| 20260504171932 | 62 | 27 | 0.0 | 0.0 | 0.00 | 0.00 | 0.00 | 93 | 1016.7 |
| 20260504171432 | 62 | 28 | 0.0 | 0.0 | 0.00 | 0.00 | 0.00 | 94 | 1016.6 |
| 20260504170932 | 62 | 26 | 0.0 | 0.0 | 0.00 | 0.00 | 0.00 | 94 | 1016.6 |
| 20260504170432 | 62 | 25 | 0.0 | 0.0 | 0.00 | 0.00 | 0.00 | 92 | 1016.5 |
| 20260504160432 | 66 | 26 | 0.0 | 0.0 | 0.00 | 0.00 | 0.00 | 92 | 1016.9 |
| 20260504150932 | 66 | 32 | 0.0 | 2.0 | 0.00 | 0.00 | 0.00 | 92 | 1017.3 |
| 20260504150432 | 66 | 25 | 0.0 | 1.0 | 0.00 | 0.00 | 0.00 | 92 | 1017.3 |
| 20260504140932 | 66 | 28 | 1.0 | 3.0 | 0.00 | 0.00 | 0.00 | 93 | 1017.6 |
| 20260504140432 | 66 | 26 | 0.0 | 1.0 | 0.00 | 0.00 | 0.00 | 93 | 1017.6 |
| 20260504130432 | 67 | 23 | 1.0 | 3.0 | 0.00 | 0.01 | 0.00 | 92 | 1018.0 |